Home > Weather > Hofheim am Taunus > Past weeks

Flag for Germany Weather for the Past 2 Weeks in Hofheim am Taunus, Hesse, Germany

Now
68 °F

Passing clouds.


Feels Like: 68 °F
Forecast: 48 / 71 °F
Wind: 7 mph from East

Location: Wiesbaden Airport

Current Time: May 5, 2016 at 6:26:41 PM

Latest Report: May 5, 2016 at 4:58 PM


Visibility: N/A

Pressure: 30.19 "Hg

Humidity: 35%

Dew Point: 39 °F

Location of Hofheim am TaunusLocation

Historic Weather in Hofheim am Taunus — Graph

°F

Hofheim am Taunus Temperature Yesterday

Maximum temperature yesterday: 59 °F (at 2:58 PM)
Minimum temperature yesterday: 37 °F (at 6:58 AM)
Average temperature yesterday: 51 °F

High & Low Weather Summary for the Past Weeks

 TemperatureHumidityPressure
High68 °F (May 2, 4:58 PM)93% (Apr 25, 10:00 PM)30.41 "Hg (Apr 25, 10:00 PM)
Low31 °F (Apr 24, 6:58 AM)27% (Apr 20, 4:58 PM)29.58 "Hg (Apr 26, 1:03 AM)
Average48 °F63%30.03 "Hg
* Reported Apr 20 4:58 PM — May 5 4:58 PM, Hofheim am Taunus, Weather by CustomWeather, © 2016

Note: Actual official high and low records may vary slightly from our data, if they occured in-between our weather recording intervals... More about our weather records

Advertising

Hofheim am Taunus Weather History for the Previous 24 Hours

Scroll right to see more
 ConditionsComfort  
Time TempWeatherWind HumidityBarometerVisibility
4:58 PM
Thu, May 5
68 °FPassing clouds.7 mph35%30.19 "HgN/A
3:55 PM66 °FPassing clouds.7 mph37%30.19 "HgN/A
2:55 PM66 °FPassing clouds.13 mph37%30.22 "HgN/A
1:55 PM64 °FPassing clouds.12 mph37%30.23 "HgN/A
12:55 PM59 °FPassing clouds.10 mph48%30.27 "HgN/A
11:58 AM57 °FPassing clouds.8 mph51%30.28 "HgN/A
10:57 AM55 °FSunny.10 mph55%30.29 "HgN/A
9:58 AM54 °FSunny.12 mph54%30.32 "HgN/A
8:58 AM51 °FSunny.12 mph57%30.33 "HgN/A
7:58 AM50 °FSunny.8 mph58%30.33 "HgN/A
6:58 AM45 °FSunny.7 mph61%30.34 "HgN/A
5:58 AM45 °FClear.8 mph57%30.33 "HgN/A
4:58 AM45 °FClear.9 mph57%30.33 "HgN/A
3:58 AM47 °FClear.7 mph51%30.34 "HgN/A
2:58 AM48 °FClear.8 mph48%30.34 "HgN/A
1:58 AM48 °FClear.7 mph46%30.34 "HgN/A
12:58 AM50 °FClear.7 mph44%30.35 "HgN/A
11:58 PM
Wed, May 4
50 °FClear.5 mph43%30.35 "HgN/A
10:58 PM50 °FClear.3 mph43%30.35 "HgN/A
9:58 PM50 °FClear.5 mph42%30.34 "HgN/A
8:58 PM55 °FSunny.3 mph33%30.33 "HgN/A
7:58 PM57 °FSunny.9 mph29%30.33 "HgN/A
6:58 PM59 °FSunny.9 mph31%30.33 "HgN/A
Weather by CustomWeather, © 2016

See weather overviewHow to use our weather pages